Temperature
20 19 19 19 18 18 18 18 18 18 18 17 17 17 17 16 16 16 15 15 14 13 13 13 13 13 13 14 14 13 14 14 14 15 15 16 16 17 17 17 16 16 16
20 19 19 19 18 18 18 18 18 18 18 17 17 17 16 16 16 16 15 14 14 13 13 13 13 13 13 13 13 13 13 13 14 14 14 15 16 16 17 17 16 16 16
20 20 19 19 19 18 19 18 18 18 18 17 17 16 16 16 16 16 15 14 14 13 13 12 12 12 12 12 13 13 13 13 13 14 14 14 15 15 16 16 16 16 16
21 20 20 19 19 19 19 19 18 18 17 17 16 16 16 16 16 15 15 14 14 13 13 12 12 12 12 12 12 12 12 12 12 13 13 14 14 14 14 15 16 16 16
21 21 20 20 20 20 19 19 18 18 17 17 16 16 16 16 15 15 15 14 14 13 13 12 12 12 12 12 12 12 12 12 12 12 12 13 13 14 14 14 15 15 15
22 22 21 21 21 20 20 19 19 18 17 17 16 16 15 15 15 15 14 14 13 13 13 13 12 12 11 11 11 11 11 11 11 12 12 12 12 13 13 13 14 14 15
23 22 22 22 21 21 20 20 19 18 17 16 16 15 15 15 14 14 14 13 13 13 13 13 12 12 11 11 11 11 11 11 11 11 11 11 12 12 12 13 13 13 14
24 23 23 22 22 21 21 20 19 18 17 16 16 15 15 15 14 14 14 13 13 13 13 12 12 11 11 11 11 11 11 11 11 11 11 11 11 11 12 12 12 12 13
25 24 23 23 22 21 21 20 19 18 17 17 16 16 15 15 14 14 14 13 13 12 12 12 12 11 11 11 11 11 11 11 11 11 11 11 11 11 11 12 12 12 12
25 25 24 23 22 22 21 20 19 18 17 17 16 16 15 15 14 13 13 13 13 12 12 12 12 11 11 11 11 11 11 11 11 10 10 11 11 11 11 11 11 11 12
26 25 24 24 23 22 21 20 19 18 17 16 16 16 15 14 14 13 13 12 12 12 12 12 11 11 11 11 11 11 11 10 10 10 10 10 10 10 10 10 11 11 11
27 26 25 24 23 22 21 20 19 18 17 17 16 15 15 14 14 13 13 12 12 12 12 11 11 11 11 11 11 10 10 10 10 10 10 10 10 10 10 10 10 10 11
26 26 25 23 22 22 21 20 19 18 18 17 16 16 15 14 14 13 13 12 12 12 12 12 11 11 11 11 10 10 10 10 10 10 10 10 10 10 10 10 10 10 10
26 25 24 23 22 21 21 20 19 19 18 17 16 16 15 15 14 14 13 13 12 12 12 12 11 11 11 11 11 10 10 10 10 10 10 10 10 10 10 10 10 10 10
26 25 24 23 22 21 20 20 19 18 18 17 16 16 15 15 14 14 13 13 13 12 12 12 11 11 11 11 11 11 10 10 10 10 10 9 9 9 10 9 9 9 9
26 25 24 23 21 21 20 19 19 18 18 17 17 16 16 15 15 14 14 13 13 12 12 12 11 11 11 11 11 10 10 10 10 10 10 9 9 9 10 10 10 9 9
26 25 24 23 22 21 20 20 19 18 18 17 17 16 16 15 15 14 14 13 13 13 12 12 12 11 11 11 11 10 10 10 10 10 10 9 9 9 9 9 9 9 9
26 25 24 23 22 21 20 20 19 18 18 18 17 17 16 15 15 15 14 14 13 13 13 12 12 11 11 11 10 10 10 10 10 10 10 9 9 9 9 9 9 9 9
26 25 24 24 23 22 21 20 19 18 18 18 17 17 16 16 15 15 14 14 13 13 13 12 12 11 11 11 10 10 10 10 10 10 9 9 9 9 9 9 9 9 9
25 25 24 24 23 22 21 20 19 19 18 18 17 17 16 16 15 15 15 14 14 13 13 12 12 11 11 11 11 10 10 10 9 9 9 9 9 9 9 9 9 8 9
24 24 24 24 23 22 22 21 20 19 19 18 17 17 16 16 16 15 15 14 14 13 13 12 12 12 12 11 11 11 10 10 9 9 9 9 9 9 9 9 9 8 8
23 23 23 23 22 22 21 20 20 19 18 17 17 16 16 16 15 15 15 14 14 13 13 12 12 12 12 11 11 11 11 10 10 9 9 9 9 9 9 9 9 8 8
21 21 21 21 21 21 20 20 19 18 17 17 17 16 16 16 16 15 15 14 13 13 12 12 12 12 12 12 11 11 10 10 9 9 9 9 8 8 8 9 8 8 8
19 19 20 19 19 19 19 18 18 17 17 16 16 16 15 15 15 15 14 14 13 13 13 13 13 12 12 12 11 11 10 10 9 9 9 9 9 8 8 8 8 8 8
18 18 18 18 18 18 17 17 17 16 16 15 15 15 15 15 14 14 14 14 14 13 13 13 12 12 12 11 11 10 10 9 9 9 8 8 8 8 8 8 8 8 8
16 16 16 16 16 16 16 16 15 15 15 14 14 14 14 14 14 14 14 14 14 14 13 13 13 12 12 11 11 11 10 10 9 9 9 8 8 8 8 8 8 8 8
Wind_Speed
11 10 10 11 10 8 8 7 7 6 3 2 0 0 1 1 1 3 7 4 4 5 5 4 5 5 5 6 6 5 6 5 5 5 6 6 7 7 6 5 5 5 8
11 11 10 10 10 9 8 7 7 6 4 3 1 1 1 3 1 2 4 3 3 4 5 5 5 5 5 6 4 4 4 6 6 5 6 5 5 3 3 3 4 4 2
12 12 11 11 11 10 10 9 8 7 6 4 3 2 1 3 1 1 2 4 3 2 3 3 4 5 6 5 6 5 5 5 6 5 4 4 4 6 4 2 0 1 2
12 12 12 12 11 11 11 9 8 7 6 5 3 3 3 3 2 1 2 2 1 3 2 1 2 4 5 6 6 6 6 6 6 6 5 4 3 3 4 5 3 1 2
13 13 13 12 11 11 11 10 9 7 6 5 4 3 4 3 3 3 3 2 4 4 4 3 1 2 4 4 5 6 6 5 5 5 6 6 5 4 5 6 5 4 3
13 13 13 11 9 9 9 10 10 8 7 6 5 4 3 2 3 4 4 4 4 2 2 2 2 2 4 4 5 5 7 5 6 5 5 6 5 5 5 6 6 5 4
13 13 12 11 10 9 9 9 11 9 7 6 5 4 3 3 5 5 5 3 3 3 2 2 1 3 4 4 5 5 6 6 6 5 5 5 6 6 6 6 6 7 6
13 13 13 11 10 10 9 8 9 9 8 6 5 4 2 3 3 1 3 4 4 4 2 1 3 4 5 6 5 5 7 6 5 7 6 5 6 6 5 5 6 7 7
13 13 12 11 10 9 8 8 9 8 7 6 6 5 5 4 4 4 4 5 3 4 4 3 4 5 5 5 6 6 7 7 6 7 7 5 5 5 5 5 5 6 7
13 13 12 11 10 9 8 8 9 7 6 5 5 5 6 6 6 5 5 5 5 5 5 6 6 6 6 6 6 6 7 7 6 6 7 6 6 6 5 5 5 5 6
12 12 11 10 10 10 10 9 8 7 6 6 5 3 3 4 4 5 6 6 6 6 6 6 7 7 7 7 7 7 8 8 8 8 8 8 7 6 6 6 6 6 6
9 10 11 10 9 9 11 10 9 9 8 7 6 6 6 5 6 6 6 5 6 6 6 6 6 7 8 7 7 8 8 8 8 8 8 8 8 8 7 6 7 7 7
6 7 10 10 9 9 9 10 10 9 9 8 8 7 7 7 7 6 6 5 6 6 6 7 7 7 7 7 7 8 8 8 8 8 8 8 8 8 7 7 7 7 9
7 6 8 9 8 8 8 7 8 7 7 7 7 7 7 6 6 6 5 5 6 6 7 7 7 7 8 8 8 8 8 8 8 8 8 9 9 9 9 8 8 8 8
9 8 8 9 8 8 8 7 7 7 6 6 6 6 6 6 6 6 6 6 6 8 7 7 7 7 8 9 7 6 8 7 7 8 8 10 11 12 10 10 7 7 6
8 10 10 11 11 9 9 9 8 8 7 7 6 6 6 6 6 6 6 6 6 7 6 7 8 9 10 5 4 5 7 7 8 9 9 10 12 13 15 16 15 12 10
6 8 10 11 11 11 10 10 9 8 8 8 8 7 6 7 7 7 6 6 6 6 7 7 8 9 9 11 10 11 8 9 9 9 9 12 13 10 8 11 14 16 18
4 6 8 10 12 12 12 10 10 10 9 9 9 8 8 7 7 6 6 6 6 6 7 7 8 8 11 12 12 12 10 10 10 11 11 11 11 13 10 9 9 9 10
3 5 7 10 12 13 12 12 11 11 11 11 10 9 8 7 6 6 6 6 6 7 7 8 9 9 10 11 12 12 8 9 11 12 12 12 11 13 12 9 9 9 9
2 3 6 7 9 11 12 13 13 11 12 11 10 9 7 7 6 6 6 6 6 7 8 9 9 9 9 11 13 12 9 10 10 9 10 13 13 12 11 9 9 10 10
2 2 3 4 5 8 9 10 11 11 10 9 8 8 7 7 7 7 7 7 8 9 9 9 9 10 11 12 14 15 10 10 10 9 8 6 7 8 11 11 9 11 9
7 5 2 2 1 5 8 8 8 6 6 6 7 7 7 8 9 8 8 8 9 10 10 11 11 10 10 12 12 16 16 14 10 9 8 5 4 6 9 10 12 13 10
10 8 6 4 3 0 4 6 6 5 6 7 7 7 7 7 7 7 8 9 9 11 11 10 9 7 6 6 11 14 16 16 11 10 12 11 10 10 10 15 16 13 10
12 11 10 8 6 5 2 3 4 5 6 7 7 7 7 9 9 9 10 10 10 10 9 8 7 6 5 4 3 4 6 10 11 10 11 14 16 14 14 13 11 11 11
12 12 11 9 9 7 6 4 2 3 5 6 7 8 10 10 10 10 11 11 10 9 9 7 7 7 7 4 2 2 5 5 4 4 7 9 10 9 9 9 10 10 10
12 11 11 11 10 9 8 6 4 3 5 7 8 10 10 10 11 11 11 16 18 17 18 18 15 10 11 10 10 10 9 7 4 4 9 11 11 10 9 9 9 9 9
Wind_Direction
150 147 146 142 142 144 143 145 144 137 144 143 182 37 42 342 21 110 105 74 35 14 317 349 345 329 343 346 333 338 323 310 295 299 298 288 263 238 225 227 235 239 235
149 149 156 153 157 159 158 158 156 162 176 164 163 210 256 280 266 84 126 119 64 357 338 30 337 355 336 314 327 328 315 313 322 319 313 308 303 345 279 222 225 233 243
161 160 169 168 171 171 174 177 175 175 181 184 212 252 225 259 261 74 111 88 48 331 342 342 346 346 326 340 345 333 333 323 317 306 306 313 333 340 319 327 5 179 211
168 169 175 178 181 181 182 179 172 176 176 190 232 268 279 294 328 3 74 75 292 261 275 312 340 336 320 322 329 15 339 326 317 319 315 296 311 310 316 319 326 293 231
174 175 181 186 189 187 183 175 168 172 178 195 220 250 283 321 2 17 9 339 270 234 220 203 220 310 298 323 344 327 322 315 313 320 323 322 312 268 270 294 308 304 281
177 176 183 183 188 187 182 169 165 169 176 196 220 226 262 311 320 317 302 290 281 261 194 190 139 293 303 333 322 310 302 303 311 313 307 307 306 306 302 300 306 302 294
181 179 184 184 188 193 185 174 162 165 178 195 207 214 224 257 259 254 267 277 296 307 59 45 27 297 302 295 283 286 284 287 290 291 287 297 305 307 303 301 302 302 299
183 184 187 188 189 193 185 175 157 161 176 193 192 194 211 254 271 306 346 323 305 309 346 300 264 263 268 278 288 293 287 282 282 282 283 284 284 287 292 291 297 300 297
186 187 188 187 186 185 174 165 148 159 179 192 178 186 206 235 284 318 285 271 281 294 316 320 296 281 271 267 272 272 279 283 280 279 280 272 281 286 283 284 280 284 290
189 189 184 183 175 171 155 146 145 161 179 195 201 213 193 207 219 241 272 294 294 286 282 279 284 283 278 270 261 266 269 271 268 263 267 273 273 279 286 287 283 274 275
193 186 177 169 165 159 150 151 156 166 182 203 208 233 228 240 240 237 243 251 259 270 274 272 271 272 271 269 263 261 267 269 267 268 268 264 264 268 276 282 284 282 278
190 176 164 156 161 167 164 165 170 180 188 194 195 202 215 229 244 254 253 256 260 263 270 272 272 273 274 272 273 274 276 273 271 269 269 269 268 260 259 265 271 274 275
182 175 156 158 167 174 174 176 181 190 191 188 190 199 210 223 230 242 254 261 266 268 271 273 274 274 275 274 269 266 267 268 270 271 271 270 268 267 263 263 267 274 279
171 178 157 156 166 172 171 177 189 191 190 188 193 201 210 224 234 239 244 253 261 265 266 267 270 273 275 274 269 266 266 266 267 267 268 269 266 263 262 263 259 263 269
175 178 169 162 169 175 174 182 192 190 193 192 205 209 210 217 226 236 240 247 255 266 268 271 273 273 272 270 271 268 271 278 284 281 275 271 268 261 256 261 263 271 273
196 186 180 176 178 184 188 192 194 191 182 195 213 216 215 222 229 234 239 245 249 256 263 269 273 273 276 272 256 260 283 284 281 279 277 277 272 261 246 244 246 248 257
207 193 184 183 182 187 190 195 192 190 188 195 208 214 214 222 227 239 245 250 260 265 264 266 269 271 271 263 246 239 254 267 269 271 273 276 276 282 268 250 244 245 246
224 194 186 183 183 187 190 193 193 192 197 200 207 212 215 224 225 229 239 246 252 259 264 266 269 270 271 264 247 239 245 261 263 263 262 263 267 271 270 272 264 254 250
221 197 200 200 187 188 188 187 198 196 201 206 206 211 214 220 225 234 239 244 249 257 262 266 263 264 266 258 243 234 253 260 263 262 263 261 260 256 248 249 257 262 263
242 208 214 213 186 184 183 186 197 201 205 208 204 204 206 213 224 236 243 248 251 258 264 264 261 263 267 262 242 227 247 260 265 265 262 260 258 256 237 235 248 256 259
331 274 236 225 196 178 179 190 200 206 206 204 201 198 198 204 219 228 233 240 248 256 261 267 267 262 260 259 241 225 235 252 264 271 275 276 274 255 240 237 247 253 262
358 354 347 313 233 178 179 195 209 209 205 206 207 205 202 216 224 217 226 235 244 255 259 258 259 257 251 247 240 224 224 239 254 264 273 277 276 263 252 244 247 251 256
12 7 4 356 357 257 186 207 209 202 211 213 214 216 216 220 227 230 236 241 242 249 257 258 258 259 249 241 233 223 224 232 240 258 268 279 270 266 258 248 245 247 248
15 12 10 10 8 358 316 244 220 208 215 224 226 228 230 234 234 234 240 244 247 250 254 258 267 276 273 266 226 212 225 233 242 258 269 269 260 251 252 256 246 237 239
17 15 11 6 3 358 348 334 303 251 243 246 247 249 248 247 245 241 240 243 247 250 253 263 269 273 275 256 178 252 277 284 304 303 280 273 269 260 253 249 244 239 234
16 12 7 4 0 356 350 343 334 316 285 270 265 264 261 258 254 251 249 235 233 238 231 231 238 249 249 245 245 248 246 247 246 263 267 268 268 266 265 265 259 250 244
Height
1521 1524 1527 1530 1532 1534 1537 1539 1541 1543 1545 1546 1548 1548 1549 1549 1549 1547 1545 1544 1543 1542 1541 1540 1540 1540 1539 1539 1539 1538 1538 1538 1538 1538 1536 1535 1533 1533 1533 1533 1534 1535 1536
1521 1524 1527 1530 1532 1533 1536 1538 1540 1542 1544 1545 1546 1547 1547 1547 1547 1546 1544 1543 1541 1541 1541 1539 1538 1538 1537 1538 1537 1537 1536 1536 1536 1536 1535 1533 1532 1531 1530 1531 1531 1531 1532
1519 1523 1526 1529 1531 1533 1536 1538 1540 1541 1543 1544 1545 1545 1545 1545 1546 1544 1543 1541 1540 1539 1539 1537 1536 1536 1535 1536 1535 1535 1534 1534 1534 1534 1535 1534 1531 1530 1529 1529 1529 1529 1529
1518 1522 1525 1528 1530 1532 1534 1536 1538 1540 1541 1542 1542 1543 1544 1544 1544 1543 1542 1540 1539 1538 1537 1536 1535 1534 1534 1534 1534 1533 1532 1532 1532 1532 1532 1533 1532 1531 1529 1528 1527 1527 1527
1516 1520 1523 1526 1529 1531 1533 1535 1536 1538 1539 1539 1540 1540 1541 1541 1541 1540 1539 1538 1537 1537 1536 1535 1534 1533 1532 1532 1531 1530 1530 1529 1530 1529 1529 1529 1529 1529 1529 1527 1526 1525 1525
1514 1518 1521 1524 1527 1530 1532 1533 1534 1535 1536 1537 1537 1537 1538 1537 1537 1536 1536 1536 1536 1536 1535 1534 1532 1531 1531 1530 1529 1528 1527 1527 1527 1526 1526 1527 1527 1527 1526 1525 1524 1523 1522
1512 1516 1519 1522 1525 1527 1529 1531 1531 1532 1533 1534 1535 1535 1535 1534 1534 1534 1534 1534 1534 1534 1533 1532 1530 1529 1528 1527 1527 1526 1525 1525 1524 1524 1524 1524 1524 1524 1523 1523 1521 1520 1519
1509 1513 1516 1519 1522 1524 1527 1528 1529 1530 1531 1532 1532 1532 1532 1532 1532 1532 1532 1531 1531 1531 1530 1529 1528 1527 1526 1525 1524 1523 1522 1522 1522 1521 1521 1520 1520 1520 1520 1520 1519 1517 1516
1506 1510 1513 1516 1519 1522 1524 1526 1527 1528 1529 1530 1530 1529 1529 1529 1529 1529 1529 1529 1529 1528 1528 1526 1525 1524 1523 1522 1521 1520 1519 1519 1518 1518 1518 1517 1517 1517 1517 1516 1516 1516 1514
1503 1506 1510 1513 1516 1519 1521 1523 1524 1526 1527 1527 1527 1528 1527 1526 1526 1526 1526 1525 1525 1524 1523 1522 1521 1520 1519 1518 1517 1516 1516 1515 1514 1514 1513 1513 1513 1512 1512 1512 1512 1512 1511
1498 1502 1506 1510 1513 1516 1518 1520 1522 1523 1524 1524 1525 1525 1525 1524 1524 1523 1523 1522 1521 1520 1519 1518 1517 1517 1516 1515 1514 1513 1512 1511 1510 1510 1509 1509 1508 1508 1507 1507 1507 1507 1506
1495 1499 1503 1507 1511 1514 1516 1517 1519 1520 1520 1521 1521 1521 1521 1521 1520 1520 1520 1519 1518 1517 1516 1515 1514 1513 1512 1511 1510 1509 1508 1507 1506 1506 1505 1504 1504 1503 1503 1502 1502 1502 1501
1494 1497 1500 1504 1508 1511 1513 1514 1515 1517 1518 1518 1518 1518 1518 1517 1517 1517 1516 1516 1515 1513 1512 1511 1510 1509 1508 1507 1505 1504 1503 1502 1502 1501 1500 1499 1499 1498 1497 1497 1497 1496 1496
1492 1496 1498 1501 1505 1508 1510 1511 1513 1514 1515 1515 1515 1515 1514 1514 1514 1513 1513 1512 1511 1510 1508 1507 1506 1505 1503 1502 1501 1500 1499 1498 1497 1496 1495 1494 1493 1493 1492 1492 1491 1491 1490
1489 1493 1496 1499 1502 1505 1506 1508 1509 1510 1511 1511 1511 1511 1511 1510 1510 1509 1509 1508 1507 1506 1504 1503 1502 1500 1499 1498 1497 1495 1494 1493 1491 1490 1489 1488 1488 1487 1487 1486 1486 1486 1485
1486 1489 1492 1495 1498 1500 1502 1504 1505 1506 1506 1506 1507 1507 1507 1507 1506 1506 1505 1504 1503 1501 1500 1498 1497 1495 1495 1494 1492 1491 1489 1487 1485 1484 1483 1482 1481 1481 1480 1480 1479 1480 1479
1483 1485 1488 1490 1493 1495 1497 1499 1500 1501 1501 1502 1502 1502 1502 1502 1502 1501 1501 1500 1499 1497 1495 1494 1492 1490 1489 1488 1486 1485 1483 1481 1479 1478 1476 1475 1475 1475 1474 1473 1473 1472 1472
1480 1482 1484 1486 1488 1490 1492 1494 1495 1496 1496 1497 1497 1498 1498 1498 1498 1497 1496 1495 1493 1492 1490 1488 1487 1485 1483 1482 1481 1479 1477 1475 1473 1472 1470 1469 1468 1468 1468 1467 1466 1466 1465
1478 1479 1481 1482 1483 1485 1487 1488 1490 1491 1491 1492 1492 1493 1493 1493 1493 1492 1491 1489 1488 1486 1485 1483 1481 1479 1477 1476 1475 1473 1471 1469 1467 1466 1465 1464 1463 1462 1462 1461 1460 1459 1458
1475 1476 1477 1478 1479 1480 1481 1483 1483 1485 1485 1486 1487 1488 1488 1487 1487 1487 1486 1485 1483 1481 1479 1477 1475 1474 1472 1470 1469 1467 1465 1463 1462 1460 1459 1458 1457 1456 1455 1454 1453 1452 1451
1473 1473 1474 1475 1475 1476 1476 1477 1479 1479 1480 1481 1482 1482 1481 1481 1481 1481 1480 1479 1477 1475 1473 1471 1469 1467 1466 1464 1463 1461 1459 1457 1456 1455 1454 1453 1451 1450 1449 1448 1446 1445 1445
1470 1470 1470 1471 1472 1472 1472 1473 1474 1475 1477 1477 1477 1476 1475 1474 1474 1474 1473 1472 1471 1469 1466 1464 1463 1461 1459 1458 1456 1455 1454 1452 1450 1448 1447 1446 1444 1443 1442 1441 1439 1439 1438
1470 1469 1469 1468 1469 1469 1469 1469 1470 1471 1472 1472 1471 1470 1469 1469 1468 1467 1466 1465 1464 1462 1460 1459 1457 1456 1454 1452 1450 1449 1447 1446 1444 1442 1440 1439 1438 1436 1434 1433 1432 1431 1430
1471 1469 1468 1467 1467 1467 1466 1466 1466 1466 1466 1466 1466 1465 1464 1462 1461 1460 1459 1458 1457 1456 1454 1453 1451 1450 1448 1447 1444 1443 1441 1439 1437 1435 1433 1432 1430 1429 1427 1426 1424 1423 1422
1472 1470 1469 1468 1467 1466 1465 1464 1463 1463 1462 1462 1461 1460 1458 1456 1455 1453 1451 1450 1449 1449 1448 1446 1445 1443 1441 1440 1438 1437 1435 1434 1431 1429 1426 1424 1423 1421 1420 1419 1418 1416 1416
1474 1472 1470 1468 1467 1465 1463 1462 1461 1459 1458 1457 1456 1454 1453 1451 1449 1446 1444 1442 1441 1440 1439 1438 1437 1435 1434 1432 1431 1430 1428 1426 1424 1422 1419 1417 1415 1414 1413 1412 1411 1410 1409